Le nostre stazioni meteo in Italia

Pubblicità
Il mio iltempo24.it
Bolzano, Italia (16020): Temperatura & dewpoint: 13.08.2018 10:00:00 - 19.08.2018 10:00:00 (CEST)Bolzano, Italia (16020): velocità del vento: 13.08.2018 10:00:00 - 19.08.2018 10:00:00 (CEST)Bolzano, Italia (16020): direzione del vento: 13.08.2018 10:00:00 - 19.08.2018 10:00:00 (CEST)Bolzano, Italia (16020): reduced air pressure: 13.08.2018 10:00:00 - 19.08.2018 10:00:00 (CEST)Bolzano, Italia (16020): visibility: 13.08.2018 10:00:00 - 19.08.2018 10:00:00 (CEST)Bolzano, Italia (16020): precipitazioni: 13.08.2018 10:00:00 - 19.08.2018 10:00:00 (CEST)
Data & Tempo tt [°C] td [°C] ff [km/h] ff [kn] dd ppp [hPa] vv [km] rr [mm]
19.08.2018 10:00:00 22,0 17,0 8 4 SE - 10 -
19.08.2018 09:00:00 19,0 18,0 4 2 - - 10 -
19.08.2018 08:00:00 18,0 17,7 4 2 SSE 1022,4 10 -
19.08.2018 07:00:00 17,0 17,0 4 2 - - 10 -
19.08.2018 06:00:00 - - - - - - - -
19.08.2018 05:00:00 17,6 17,4 4 2 O 1022,0 - -
19.08.2018 04:00:00 - - - - - - - -
19.08.2018 03:00:00 - - - - - - - -
19.08.2018 02:00:00 18,9 18,5 4 2 S 1022,4 - -
19.08.2018 01:00:00 - - - - - - - -
19.08.2018 00:00:00 - - - - - - - -
18.08.2018 23:00:00 20,8 18,6 22 12 N 1020,3 8 -
18.08.2018 22:00:00 26,0 17,0 8 4 - - 10 -
18.08.2018 21:00:00 26,0 16,0 0 0 N - 10 -
18.08.2018 20:00:00 26,3 18,2 4 2 - 1015,6 10 0,0
18.08.2018 19:00:00 31,0 14,0 5 3 - - 10 -
18.08.2018 18:00:00 32,0 13,0 8 4 - - 10 -
18.08.2018 17:00:00 31,6 11,5 15 8 ESE 1014,3 10 -
18.08.2018 16:00:00 33,0 14,0 15 8 S - 10 -
18.08.2018 15:00:00 32,0 14,0 9 5 S - 10 -
18.08.2018 14:00:00 31,4 17,2 5 3 - 1015,7 10 0,0
18.08.2018 13:00:00 29,0 16,0 4 2 - - 10 -
18.08.2018 12:00:00 26,0 16,0 4 2 - - 10 -
18.08.2018 11:00:00 24,5 15,9 4 2 - 1018,4 10 -
18.08.2018 10:00:00 22,0 18,0 4 2 - - 10 -
18.08.2018 09:00:00 20,0 18,0 4 2 ESE - 10 -
18.08.2018 08:00:00 18,9 17,8 2 1 - 1019,4 10 -
18.08.2018 07:00:00 18,0 17,0 4 2 - - 10 -
18.08.2018 06:00:00 - - - - - - - -
18.08.2018 05:00:00 18,7 18,1 2 1 SO 1018,9 - -
18.08.2018 04:00:00 - - - - - - - -
18.08.2018 03:00:00 - - - - - - - -
18.08.2018 02:00:00 20,2 18,4 4 2 SSO 1018,7 - -
18.08.2018 01:00:00 - - - - - - - -
18.08.2018 00:00:00 - - - - - - - -
17.08.2018 23:00:00 26,2 14,9 8 4 SSO 1014,6 10 -
17.08.2018 22:00:00 27,0 15,0 9 5 S - 10 -
17.08.2018 21:00:00 28,0 15,0 13 7 S - 10 -
17.08.2018 20:00:00 28,7 14,7 13 7 S 1011,6 10 0,0
17.08.2018 19:00:00 31,0 14,0 16 9 S - 10 -
17.08.2018 18:00:00 32,0 12,0 15 8 S - 10 -
17.08.2018 17:00:00 33,3 11,8 13 7 S 1009,4 10 -
17.08.2018 16:00:00 33,0 12,0 13 7 SSE - 10 -
17.08.2018 15:00:00 32,0 13,0 11 6 S - 10 -
17.08.2018 14:00:00 32,3 13,2 8 4 S 1011,4 10 0,0
17.08.2018 13:00:00 30,0 13,0 5 3 S - 10 -
17.08.2018 12:00:00 28,0 14,0 4 2 - - 10 -
17.08.2018 11:00:00 27,3 15,1 0 0 N 1014,4 10 -
17.08.2018 10:00:00 24,0 14,0 0 0 N - 10 -
17.08.2018 09:00:00 22,0 16,0 0 0 N - 10 -
17.08.2018 08:00:00 19,3 15,8 2 1 - 1016,3 10 0,0
17.08.2018 07:00:00 18,0 15,0 0 0 N - 10 -
17.08.2018 06:00:00 - - - - - - - -
17.08.2018 05:00:00 19,0 15,6 4 2 NO 1015,5 - -
17.08.2018 04:00:00 - - - - - - - -
17.08.2018 03:00:00 - - - - - - - -
17.08.2018 02:00:00 21,0 16,3 2 1 SSE 1015,3 - 0,0
17.08.2018 01:00:00 - - - - - - - -
17.08.2018 00:00:00 - - - - - - - -
16.08.2018 23:00:00 24,1 14,2 5 3 S 1014,8 10 -
16.08.2018 22:00:00 24,0 14,0 8 4 S - 10 -
16.08.2018 21:00:00 26,0 14,0 11 6 SSE - 10 -
16.08.2018 20:00:00 26,8 14,1 16 9 SSE 1012,5 10 0,0
16.08.2018 19:00:00 29,0 14,0 16 9 SSE - 10 -
16.08.2018 18:00:00 31,0 14,0 16 9 S - 10 -
16.08.2018 17:00:00 31,3 13,3 15 8 S 1011,3 10 -
16.08.2018 16:00:00 32,0 13,0 13 7 S - 10 -
16.08.2018 15:00:00 31,0 14,0 11 6 S - 10 -
16.08.2018 14:00:00 30,7 13,2 9 5 S 1013,2 10 0,0
16.08.2018 13:00:00 28,0 12,0 9 5 SSE - 10 -
16.08.2018 12:00:00 27,0 10,0 5 3 SE - 10 -
16.08.2018 11:00:00 26,0 11,4 5 3 ESE 1016,9 10 -
16.08.2018 10:00:00 23,0 11,0 5 3 - - 10 -
16.08.2018 09:00:00 20,0 13,0 5 3 - - 10 -
16.08.2018 08:00:00 19,1 12,0 5 3 S 1018,8 10 0,0
16.08.2018 07:00:00 17,0 12,0 0 0 N - 10 -
16.08.2018 06:00:00 - - - - - - - -
16.08.2018 05:00:00 18,8 12,1 4 2 SE 1018,2 - -
16.08.2018 04:00:00 - - - - - - - -
16.08.2018 03:00:00 - - - - - - - -
16.08.2018 02:00:00 20,7 13,8 2 1 S 1018,0 - 0,0
16.08.2018 01:00:00 - - - - - - - -
16.08.2018 00:00:00 - - - - - - - -
15.08.2018 23:00:00 22,0 14,9 4 2 - 1016,9 10 -
15.08.2018 22:00:00 24,0 14,0 2 1 - - 10 -
15.08.2018 21:00:00 26,0 12,0 9 5 SSE - 10 -
15.08.2018 20:00:00 27,5 12,3 9 5 SE 1013,5 10 0,0
15.08.2018 19:00:00 29,0 12,0 9 5 SSE - 10 -
15.08.2018 18:00:00 32,0 12,0 8 4 S - 10 -
15.08.2018 17:00:00 33,2 7,2 5 3 E 1012,6 10 -
15.08.2018 16:00:00 31,0 8,0 8 4 NNO - 10 -
15.08.2018 15:00:00 31,0 10,0 4 2 - - 10 -
15.08.2018 14:00:00 29,9 9,4 5 3 ONO 1014,2 10 0,0
15.08.2018 13:00:00 28,0 10,0 4 2 - - 10 -
15.08.2018 12:00:00 27,0 11,0 0 0 N - 10 -
15.08.2018 11:00:00 25,4 12,0 0 0 N 1016,7 10 -
15.08.2018 10:00:00 22,0 12,0 0 0 N - 10 -
15.08.2018 09:00:00 19,0 14,0 0 0 N - 10 -
15.08.2018 08:00:00 16,0 14,3 0 0 N 1018,4 10 0,0
15.08.2018 07:00:00 15,0 14,0 0 0 N - 10 -
15.08.2018 06:00:00 - - - - - - - -
15.08.2018 05:00:00 15,9 14,7 2 1 E 1017,1 - -
15.08.2018 04:00:00 - - - - - - - -
15.08.2018 03:00:00 - - - - - - - -
15.08.2018 02:00:00 16,7 15,4 4 2 OSO 1016,5 - 0,0
15.08.2018 01:00:00 - - - - - - - -
15.08.2018 00:00:00 - - - - - - - -
14.08.2018 23:00:00 20,3 16,1 5 3 SE 1015,0 10 -
14.08.2018 22:00:00 22,0 15,0 4 2 - - 10 -
14.08.2018 21:00:00 23,0 12,0 5 3 - - 10 -
14.08.2018 20:00:00 24,9 16,4 8 4 ONO 1012,1 10 0,0
14.08.2018 19:00:00 27,0 14,0 4 2 - - 10 -
14.08.2018 18:00:00 26,0 14,0 18 10 NNO - 10 -
14.08.2018 17:00:00 28,9 15,7 9 5 NO 1009,9 10 -
14.08.2018 16:00:00 30,0 14,0 5 3 - - 10 -
14.08.2018 15:00:00 28,0 16,0 13 7 S - 10 -
14.08.2018 14:00:00 28,6 17,3 5 3 S 1010,0 10 0,0
14.08.2018 13:00:00 27,0 16,0 5 3 - - 10 -
14.08.2018 12:00:00 25,0 15,0 4 2 - - 10 -
14.08.2018 11:00:00 23,3 16,5 4 2 - 1012,6 10 -
14.08.2018 10:00:00 21,0 17,0 0 0 N - 10 -
14.08.2018 09:00:00 20,0 18,0 4 2 - - 10 -
14.08.2018 08:00:00 19,5 18,2 4 2 - 1012,8 10 -
14.08.2018 07:00:00 18,0 17,0 5 3 SE - 10 -
14.08.2018 06:00:00 - - - - - - - -
14.08.2018 05:00:00 18,1 17,4 8 4 SE 1012,0 - -
14.08.2018 04:00:00 - - - - - - - -
14.08.2018 03:00:00 - - - - - - - -
14.08.2018 02:00:00 19,7 18,1 4 2 NE 1011,4 - -
14.08.2018 01:00:00 - - - - - - - -
14.08.2018 00:00:00 - - - - - - - -
13.08.2018 23:00:00 22,9 18,2 11 6 NO 1010,0 10 -
13.08.2018 22:00:00 25,0 17,0 8 4 N - 10 -
13.08.2018 21:00:00 26,0 15,0 8 4 SSE - 10 -
13.08.2018 20:00:00 26,1 15,8 8 4 S 1008,1 10 0,0
13.08.2018 19:00:00 28,0 16,0 9 5 S - 10 -
13.08.2018 18:00:00 29,0 15,0 11 6 S - 10 -
13.08.2018 17:00:00 29,0 12,7 21 11 SSE 1008,3 10 -
13.08.2018 16:00:00 30,0 16,0 21 11 S - 10 -
13.08.2018 15:00:00 32,0 14,0 15 8 S - 10 -
13.08.2018 14:00:00 32,0 14,3 9 5 S 1008,8 10 0,0
13.08.2018 13:00:00 30,0 15,0 9 5 SSE - 10 -
13.08.2018 12:00:00 27,0 16,0 9 5 SSO - 10 -
13.08.2018 11:00:00 27,6 16,4 0 0 N 1012,8 10 -
13.08.2018 10:00:00 25,0 16,0 4 2 - - 10 -

tt = Temperatura
td = dewpoint
ff = velocità del vento
dd = direzione del vento
ppp = reduced air pressure
vv = visibility
rr = precipitazioni

Stazioni seguenti

WeatherPro
AMSI
MeteoEarth